[[{"header":{"parameterUnit":"m.s-1","parameterCategory":1,"la1":30.2992,"la2":30.254,"lo1":-89.0895,"lo2":-89.0443,"dy":0.0025,"dx":0.0025,"nx":19,"ny":19,"refTime":"2026-05-14T03:00:00:Z","depth":0,"parameterNumber":2,"parameterNumberName":"U-component_of_WINDS"},"data":[0,0,0,-3.8785,-3.8787,-3.8867,-3.8867,-3.8975,-3.8976,0,0,0,0,0,0,0,0,0,0,0,-3.8765,-3.8766,-3.8785,-3.8787,-3.8867,-3.8867,-3.8975,-3.8976,0,0,0,0,0,0,0,0,0,0,0,-3.8765,-3.8766,-3.8767,-3.8788,-3.8867,-3.8867,-3.8975,-3.8912,0,0,0,0,0,0,0,0,0,0,-3.8834,-3.8819,-3.8766,-3.8767,-3.8788,-3.8867,-3.8867,-3.8909,-3.8916,-3.8942,0,-3.8966,0,-3.8973,-3.8984,-3.8984,0,0,0,-3.8784,-3.8813,-3.8832,-3.8767,-3.8789,-3.8867,-3.883,-3.8913,-3.8921,-3.8951,-3.8967,-3.8971,-3.8975,-3.8985,-3.8985,-3.9144,-3.9145,0,0,-3.878,-3.8781,-3.8826,-3.8837,-3.8825,-3.8828,-3.8833,-3.8918,-3.8935,-3.8968,-3.8974,-3.8977,-3.8986,-3.8986,-3.9143,-3.9145,0,0,0,-3.8769,-3.8778,-3.8795,-3.8833,-3.8847,-3.883,-3.8836,-3.8931,-3.8937,-3.8975,-3.8978,-3.8986,-3.8988,-3.9143,-3.9144,-3.9187,0,0,0,-3.8766,-3.8772,-3.8793,-3.8795,-3.8845,-3.889,-3.8847,-3.8931,-3.894,-3.8977,-3.8986,-3.8989,-3.9142,-3.9143,-3.9184,-3.9206,0,0,0,-3.8759,-3.8771,-3.8784,-3.8795,-3.8829,-3.8889,-3.8899,-3.8933,-3.8942,-3.8985,-3.8989,-3.9141,-3.9143,-3.9181,-3.9202,-3.9247,0,0,0,-3.8751,-3.8822,-3.8785,-3.8866,-3.8828,-3.8916,-3.8898,-3.8963,-3.9005,-3.8987,-3.9142,-3.9144,-3.918,-3.9199,-3.9244,-3.9283,-3.9301,0,0,-3.8841,-3.8833,-3.888,-3.885,-3.8944,-3.8904,-3.9006,-3.9042,-3.9045,-3.9111,-3.9115,-3.9185,-3.9201,-3.9246,-3.9404,-3.9418,0,0,0,-3.8909,-3.8943,-3.8968,-3.9008,-3.9039,-3.9067,-3.9088,-3.9102,-3.9159,-3.9079,-3.9216,-3.9225,-3.9252,-3.927,-3.9282,-3.9304,-3.9153,-3.9153,-3.9153,-3.9036,-3.9037,-3.9116,-3.9127,-3.9167,-3.919,-3.9221,-3.9244,-3.9233,-3.9266,-3.9283,-3.9379,-3.9401,-3.941,-3.9432,-3.9308,-3.9308,-3.9308,-3.9308,-3.9165,-3.9212,-3.9199,-3.9269,-3.9271,-3.9331,-3.9357,-3.9347,-3.9403,-3.9365,-3.9389,-3.9344,-3.9425,-3.9445,-3.9312,-3.9311,-3.9311,-3.931,-3.931,-3.9245,-3.9267,-3.9285,-3.9344,-3.9391,-3.9401,-3.9455,-3.9456,-3.9456,-3.948,-3.9498,-3.9497,-3.9493,-3.9489,-3.949,-3.949,-3.949,-3.949,-3.9491,-3.9318,-3.9337,-3.9383,-3.9424,-3.9451,-3.9486,-3.9513,-3.9539,-3.9568,-3.9563,-3.9563,-3.9548,-3.9434,-3.9403,-3.9496,-3.9495,-3.9494,-3.9494,-3.9493,-3.9442,-3.9415,-3.9485,-3.9512,-3.9561,-3.9607,-3.9609,-3.9663,-3.9685,-3.9712,-3.9694,-3.9611,-3.9601,-3.9592,-3.9566,-3.9695,-3.9695,-3.9695,-3.9695,-3.9506,-3.9503,-3.9575,-3.9619,-3.9662,-3.9671,-3.9751,-3.9774,-3.9793,-3.9807,-3.9789,-3.9757,-3.9748,-3.9744,-3.9731,-3.9706,-3.9868,-3.9868,-3.9868,-3.9581,-3.9583,-3.9649,-3.9669,-3.9708,-3.9742,-3.9817,-3.9867,-3.9884,-3.9875,-3.9817,-3.981,-3.9757,-3.9741,-3.9725,-3.9706,-3.9661,0,0]},{"header":{"parameterUnit":"m.s-1","parameterCategory":1,"la1":30.2992,"la2":30.254,"lo1":-89.0895,"lo2":-89.0443,"dy":0.0025,"dx":0.0025,"nx":19,"ny":19,"refTime":"2026-05-14T03:00:00:Z","depth":0,"parameterNumber":3,"parameterNumberName":"V-component_of_WINDS"},"data":[0,0,0,3.9402,3.9403,3.9445,3.9446,3.9492,3.9492,0,0,0,0,0,0,0,0,0,0,0,3.9387,3.9387,3.9402,3.9403,3.9445,3.9446,3.9492,3.9492,0,0,0,0,0,0,0,0,0,0,0,3.9386,3.9387,3.9387,3.9403,3.9445,3.9446,3.9492,3.9462,0,0,0,0,0,0,0,0,0,0,3.9423,3.9405,3.9387,3.9387,3.9404,3.9445,3.9446,3.9461,3.9464,3.947,0,3.9476,0,3.9485,3.9495,3.9495,0,0,0,3.9405,3.9403,3.9417,3.9387,3.9404,3.9445,3.9427,3.9463,3.9466,3.9474,3.9476,3.9478,3.9486,3.9495,3.9496,3.9526,3.9526,0,0,3.9403,3.9392,3.9415,3.9419,3.9414,3.9426,3.9428,3.9465,3.9466,3.9477,3.948,3.9486,3.9496,3.9496,3.9526,3.9526,0,0,0,3.9395,3.939,3.9404,3.9417,3.9425,3.9427,3.943,3.9465,3.947,3.948,3.9487,3.9496,3.9496,3.9526,3.9526,3.9518,0,0,0,3.9394,3.9386,3.9403,3.9397,3.9425,3.9446,3.9428,3.9468,3.9472,3.9487,3.9496,3.9497,3.9526,3.9526,3.9518,3.9516,0,0,0,3.9385,3.9385,3.939,3.9396,3.9414,3.9445,3.9453,3.9469,3.9476,3.9495,3.9497,3.9526,3.9526,3.9518,3.9516,3.9521,0,0,0,3.9372,3.9382,3.939,3.9403,3.9414,3.9441,3.9453,3.9473,3.9489,3.9496,3.9526,3.9526,3.9518,3.9516,3.9521,3.9523,3.9523,0,0,3.9378,3.9382,3.9391,3.9399,3.9422,3.9435,3.9457,3.9481,3.9492,3.9513,3.9514,3.9518,3.9516,3.9521,3.9526,3.9526,0,0,0,3.9389,3.9395,3.9404,3.9419,3.9438,3.9454,3.9475,3.9484,3.9503,3.9501,3.9521,3.9521,3.9524,3.9525,3.9525,3.9529,3.9526,3.9526,3.9526,3.9382,3.9396,3.9412,3.9431,3.9445,3.9468,3.948,3.9496,3.9505,3.951,3.9516,3.9518,3.9519,3.9519,3.9523,3.9519,3.9519,3.9519,3.9519,3.9392,3.9403,3.9416,3.9436,3.9451,3.9467,3.9488,3.9495,3.9511,3.9514,3.9518,3.952,3.9519,3.9522,3.9518,3.9518,3.9518,3.9518,3.9518,3.9389,3.9397,3.9408,3.9431,3.9447,3.9466,3.9481,3.9494,3.9506,3.9509,3.9517,3.9518,3.9519,3.9512,3.9512,3.9512,3.9512,3.9512,3.9512,3.9382,3.9395,3.9407,3.9428,3.944,3.9456,3.9478,3.9489,3.9504,3.9512,3.9512,3.9521,3.9516,3.9515,3.9512,3.9512,3.9512,3.9512,3.9512,3.9388,3.9389,3.9408,3.9419,3.9444,3.9459,3.9475,3.9496,3.9506,3.9513,3.9522,3.9516,3.9521,3.9521,3.952,3.9519,3.9519,3.9519,3.9519,3.9386,3.939,3.9412,3.9429,3.9447,3.9463,3.9482,3.9499,3.9517,3.9524,3.9526,3.9526,3.9525,3.953,3.953,3.9529,3.9531,3.9531,3.9531,3.939,3.9396,3.9411,3.9429,3.945,3.9467,3.9486,3.9504,3.9524,3.9531,3.953,3.953,3.9529,3.9528,3.9536,3.9536,3.9534,0,0]}]]